Deer Park, WA

7:34 AM PDT on April 23, 2017 (GMT -0700)
Deer Park

Weather History for KDEW - October, 2012

Change the Weather History Date:

Tuesday, October 16, 2012

  Actual Average Record
Temperature  
Mean Temperature 47 °F 44 °F  
Max Temperature 61 °F 58 °F 76 °F (2015)
Min Temperature 32 °F 30 °F 12 °F (1999)
Degree Days  
Heating Degree Days 18 21  
Month to date heating degree days 249 291  
Since 1 July heating degree days 559 710  
Cooling Degree Days 0 0  
Month to date cooling degree days 0 0  
Year to date cooling degree days 232 187  
Growing Degree Days 1 (Base 50)    
Moisture  
Dew Point 38 °F    
Average Humidity 62    
Maximum Humidity 82    
Minimum Humidity 41    
Precipitation  
Precipitation 0.00 in 0.05 in 0.97 in (2006)
Month to date precipitation 0.56 0.70  
Year to date precipitation 18.32 15.14  
Sea Level Pressure  
Sea Level Pressure 29.71 in    
Wind  
Wind Speed 16 mph (SW)    
Max Wind Speed 31 mph    
Max Gust Speed 39 mph    
Visibility 10 miles    
Events      
T = Trace of Precipitation, MM = Missing Value Source: NWS Daily Summary

Daily Weather History Graph

Daily Weather History Graph

Search for Another Location

Airport or City:

Trip Planner

Search our weather history database for the weather conditions in past years. The results will help you decide how hot, cold, wet, or windy it might be!

Date:

Astronomy

Oct. 16, 2012 Rise Set
Actual Time 7:11 AM PDT 5:58 PM PDT
Civil Twilight 6:39 AM PDT 6:29 PM PDT
Nautical Twilight 6:03 AM PDT 7:05 PM PDT
Astronomical Twilight 5:27 AM PDT 7:41 PM PDT
Moon 8:49 AM PDT (10/16) 6:34 PM PDT (10/16)
Length of Visible Light 11h 49m
Length of Day
10h 46m
New Moon, 2% of the Moon is Illuminated
Oct 16
New Moon
Oct 21
First Quarter
Oct 29
Full
Nov 6
Last Quarter
Nov 13
New

Hourly Weather History & Observations

Time (PDT) Temp. Windchill Dew Point Humidity Pressure Visibility Wind Dir Wind Speed Gust Speed Precip Events Conditions
12:53 AM 57.9 °F - 55.9 °F 93% 29.54 in 10.0 mi SSW 13.8 mph 19.6 mph N/A   Overcast
1:53 AM 59.0 °F - 55.9 °F 90% 29.51 in 10.0 mi SW 10.4 mph - N/A   Overcast
2:28 AM 59.0 °F - 55.4 °F 88% 29.52 in 10.0 mi SW 13.8 mph 24.2 mph N/A   Overcast
2:53 AM 59.0 °F - 55.9 °F 90% 29.48 in 10.0 mi SW 11.5 mph - N/A   Overcast
3:04 AM 59.0 °F - 55.4 °F 88% 29.51 in 10.0 mi SSW 17.3 mph 23.0 mph N/A   Overcast
3:53 AM 59.0 °F - 55.9 °F 90% 29.45 in 10.0 mi SSW 19.6 mph 26.5 mph N/A   Overcast
5:53 AM 57.0 °F - 46.0 °F 67% 29.42 in 10.0 mi SW 25.3 mph 38.0 mph N/A   Clear
6:53 AM 54.0 °F - 42.1 °F 64% 29.47 in 10.0 mi WSW 19.6 mph 27.6 mph N/A   Clear
7:53 AM 53.1 °F - 39.9 °F 61% 29.51 in 10.0 mi WSW 19.6 mph 25.3 mph N/A   Clear
8:53 AM 52.0 °F - 39.9 °F 63% 29.59 in 10.0 mi SW 11.5 mph 19.6 mph N/A   Partly Cloudy
9:53 AM 55.0 °F - 39.0 °F 55% 29.65 in 10.0 mi WSW 11.5 mph 17.3 mph N/A   Mostly Cloudy
10:53 AM 54.0 °F - 37.9 °F 55% 29.69 in 10.0 mi SW 21.9 mph 28.8 mph N/A   Overcast
11:53 AM 55.9 °F - 33.1 °F 42% 29.72 in 10.0 mi WSW 21.9 mph 34.5 mph N/A   Clear
12:53 PM 57.0 °F - 28.9 °F 34% 29.73 in 10.0 mi SW 27.6 mph 34.5 mph N/A   Clear
1:53 PM 60.1 °F - 28.0 °F 30% 29.74 in 10.0 mi WSW 18.4 mph 27.6 mph N/A   Partly Cloudy
2:53 PM 61.0 °F - 26.1 °F 26% 29.77 in 10.0 mi WSW 18.4 mph 29.9 mph N/A   Overcast
3:53 PM 57.9 °F - 24.1 °F 27% 29.81 in 10.0 mi WSW 21.9 mph 28.8 mph N/A   Scattered Clouds
4:53 PM 55.0 °F - 28.9 °F 37% 29.84 in 10.0 mi SW 23.0 mph 31.1 mph N/A   Overcast
5:53 PM 53.1 °F - 28.9 °F 40% 29.88 in 10.0 mi SW 16.1 mph 26.5 mph N/A   Overcast
6:53 PM 51.1 °F - 28.9 °F 43% 29.93 in 10.0 mi SW 13.8 mph 23.0 mph N/A   Scattered Clouds
7:53 PM 48.9 °F - 28.9 °F 46% 29.96 in 10.0 mi West 11.5 mph - N/A   Clear
8:53 PM 46.0 °F 41.4 °F 30.0 °F 54% 29.99 in 10.0 mi WSW 9.2 mph - N/A   Clear
9:53 PM 43.0 °F 41.3 °F 30.9 °F 62% 30.01 in 10.0 mi ESE 3.5 mph - N/A   Clear
10:53 PM 41.0 °F 36.4 °F 30.9 °F 67% 30.04 in 10.0 mi South 6.9 mph - N/A   Clear
11:53 PM 36.0 °F 33.3 °F 30.0 °F 79% 30.06 in 10.0 mi South 3.5 mph - N/A   Clear